TimeMDT,TemperatureF,Dew PointF,Humidity,Sea Level PressureIn,VisibilityMPH,Wind Direction,Wind SpeedMPH,Gust SpeedMPH,PrecipitationIn,Events,Conditions,WindDirDegrees,DateUTC
12:53 AM,48.9,21.9,35,29.63,10.0,WSW,6.9,-,N/A,,Widespread Dust,240,2013-04-17 06:53:00
1:53 AM,46.0,21.0,37,29.62,10.0,WSW,8.1,-,N/A,,Widespread Dust,250,2013-04-17 07:53:00
2:53 AM,44.1,21.0,40,29.62,10.0,Calm,Calm,-,N/A,,Widespread Dust,0,2013-04-17 08:53:00
3:53 AM,43.0,21.9,43,29.61,10.0,SSW,5.8,-,N/A,,Widespread Dust,210,2013-04-17 09:53:00
4:53 AM,42.1,21.9,45,29.63,10.0,West,5.8,-,N/A,,Widespread Dust,270,2013-04-17 10:53:00
5:53 AM,42.1,23.0,47,29.65,10.0,WSW,5.8,-,N/A,,Widespread Dust,240,2013-04-17 11:53:00
6:53 AM,39.0,24.1,55,29.67,10.0,SW,5.8,-,N/A,,Widespread Dust,220,2013-04-17 12:53:00
8:53 AM,46.0,19.9,35,29.68,10.0,SW,18.4,26.5,N/A,,Widespread Dust,220,2013-04-17 14:53:00
9:53 AM,46.0,18.0,33,29.68,10.0,SSW,19.6,-,N/A,,Mostly Cloudy,210,2013-04-17 15:53:00
10:53 AM,42.1,24.1,49,29.72,10.0,West,24.2,33.4,0.00,Rain,Light Rain,280,2013-04-17 16:53:00
11:53 AM,43.0,23.0,45,29.73,10.0,NW,16.1,26.5,0.00,,Overcast,310,2013-04-17 17:53:00
12:53 PM,45.0,19.9,37,29.74,10.0,WNW,23.0,32.2,N/A,,Mostly Cloudy,290,2013-04-17 18:53:00
1:53 PM,48.0,18.0,30,29.73,10.0,WNW,24.2,32.2,N/A,,Partly Cloudy,300,2013-04-17 19:53:00
2:53 PM,48.0,16.0,28,29.75,10.0,WNW,19.6,38.0,N/A,,Clear,300,2013-04-17 20:53:00
3:53 PM,48.9,15.1,26,29.75,10.0,West,23.0,38.0,N/A,,Scattered Clouds,270,2013-04-17 21:53:00
4:53 PM,45.0,14.0,29,29.78,10.0,WNW,20.7,31.1,N/A,,Partly Cloudy,300,2013-04-17 22:53:00
5:53 PM,45.0,15.1,30,29.81,10.0,WNW,23.0,34.5,N/A,,Partly Cloudy,290,2013-04-17 23:53:00
6:53 PM,42.1,15.1,34,29.85,10.0,WNW,17.3,28.8,N/A,,Clear,300,2013-04-18 00:53:00
7:53 PM,37.9,14.0,38,29.87,10.0,NNW,12.7,23.0,N/A,,Clear,330,2013-04-18 01:53:00
8:53 PM,36.0,14.0,41,29.91,10.0,NW,10.4,-,N/A,,Clear,310,2013-04-18 02:53:00
9:53 PM,34.0,14.0,44,29.96,10.0,WNW,10.4,23.0,N/A,,Clear,300,2013-04-18 03:53:00
10:53 PM,33.1,12.0,42,29.99,10.0,West,17.3,23.0,N/A,,Clear,280,2013-04-18 04:53:00
11:53 PM,32.0,9.0,38,30.01,10.0,WNW,15.0,21.9,N/A,,Clear,290,2013-04-18 05:53:00